[[{"header":{"parameterUnit":"m.s-1","parameterCategory":1,"la1":30.2991,"la2":30.254,"lo1":-89.0895,"lo2":-89.0444,"dy":0.0017,"dx":0.0017,"nx":28,"ny":28,"refTime":"2024-04-26T09:00:00:Z","depth":0,"parameterNumber":2,"parameterNumberName":"U-component_of_WINDS"},"data":[0,0,0,0,0,0,0,0,0,0,0,0,0,0,0,0,0,0,0,0,0,0,0,0,0,0,0,0,0,0,0,0,0,0,0,0,0,0,0,0,0,0,0,0,0,0,0,0,0,0,0,0,0,0,0,0,0,0,-0.7466,-0.7466,0,-0.7472,-0.7472,-0.7472,-0.7467,-0.7466,-0.7466,-0.7466,-0.7472,-0.7473,-0.7473,0,0,0,0,0,0,0,0,0,0,0,0,0,-0.7448,-0.7449,-0.7466,-0.7466,-0.7466,-0.7472,-0.7472,-0.7473,-0.7467,-0.7466,-0.7466,-0.7466,-0.7472,-0.7473,-0.7473,0,0,0,0,0,0,0,0,0,0,0,0,0,-0.7455,-0.7449,-0.7466,-0.7464,-0.7464,-0.7472,-0.7472,-0.7473,-0.7467,-0.7466,-0.7466,-0.7466,-0.7472,-0.7473,-0.7473,-0.7484,0,0,-0.7475,-0.7475,0,0,0,0,0,0,0,0,-0.7455,-0.7456,-0.7464,-0.7464,-0.7464,-0.7468,-0.7469,-0.7476,-0.7467,-0.7465,-0.7466,-0.7465,-0.7471,-0.7472,-0.7474,-0.7484,-0.7485,-0.7475,-0.7475,-0.7476,-0.7476,0,0,0,0,0,0,0,-0.7455,-0.7456,-0.7468,-0.7464,-0.7464,-0.7463,-0.7463,-0.747,-0.747,-0.7466,-0.7465,-0.7466,-0.7471,-0.7473,-0.7474,-0.7485,-0.7475,-0.7475,-0.7476,-0.7476,-0.7506,-0.7506,0,0,0,0,0,0,-0.7454,-0.7455,-0.7468,-0.7468,-0.7458,-0.7463,-0.7464,-0.7467,-0.747,-0.747,-0.7466,-0.7466,-0.7472,-0.7473,-0.7474,-0.7488,-0.7476,-0.7476,-0.7476,-0.7505,-0.7506,-0.7506,0,0,0,0,0,0,-0.7454,-0.7455,-0.7468,-0.7462,-0.7463,-0.7464,-0.7468,-0.7467,-0.747,-0.7471,-0.7471,-0.7469,-0.7472,-0.7473,-0.7482,-0.7488,-0.7476,-0.7477,-0.7505,-0.7506,-0.7506,-0.7516,0,0,0,0,0,0,-0.7453,-0.7455,-0.7459,-0.7462,-0.7464,-0.7475,-0.7468,-0.7468,-0.7471,-0.747,-0.7473,-0.7473,-0.7472,-0.7481,-0.7483,-0.7489,-0.7477,-0.7504,-0.7505,-0.7506,-0.7515,-0.7516,-0.7518,0,0,0,0,0,-0.7453,-0.7461,-0.746,-0.7461,-0.7469,-0.7476,-0.7477,-0.7476,-0.7471,-0.7476,-0.7476,-0.7473,-0.7487,-0.7482,-0.7484,-0.749,-0.7504,-0.7505,-0.7506,-0.7514,-0.7516,-0.7518,0,0,0,0,0,0,-0.7459,-0.7462,-0.746,-0.7469,-0.7472,-0.7475,-0.748,-0.7478,-0.7482,-0.7481,-0.7479,-0.748,-0.7489,-0.749,-0.7485,-0.7502,-0.7495,-0.7496,-0.7501,-0.7503,-0.7504,-0.7504,-0.7478,0,0,0,0,0,-0.7462,-0.7467,-0.7469,-0.7477,-0.7479,-0.7479,-0.7482,-0.7481,-0.7484,-0.7486,-0.7487,-0.749,-0.7496,-0.7499,-0.7504,-0.7515,-0.7516,-0.752,-0.7522,-0.7523,-0.7524,-0.7531,-0.7534,-0.751,-0.751,-0.751,0,0,-0.7467,-0.7469,-0.7472,-0.7479,-0.7481,-0.7487,-0.748,-0.7487,-0.7491,-0.7486,-0.7495,-0.7496,-0.75,-0.751,-0.7514,-0.7511,-0.7531,-0.7524,-0.7525,-0.7526,-0.7533,-0.7535,-0.7537,-0.751,-0.751,-0.751,0,0,-0.7479,-0.7481,-0.7489,-0.7492,-0.7495,-0.7496,-0.7498,-0.7501,-0.7501,-0.751,-0.7507,-0.7512,-0.7521,-0.7524,-0.7527,-0.7542,-0.7539,-0.7543,-0.7552,-0.7559,-0.7561,-0.7563,-0.7569,-0.7571,-0.7545,-0.7545,-0.7545,0,-0.7485,-0.7494,-0.7493,-0.75,-0.7504,-0.75,-0.7508,-0.751,-0.7516,-0.7518,-0.7514,-0.7526,-0.7528,-0.754,-0.7544,-0.7545,-0.7548,-0.7543,-0.7561,-0.7562,-0.7564,-0.757,-0.7572,-0.7545,-0.7545,-0.7545,-0.7545,0,-0.7502,-0.7509,-0.7514,-0.752,-0.7524,-0.7531,-0.7532,-0.7536,-0.7534,-0.7535,-0.7545,-0.7547,-0.7553,-0.7555,-0.7554,-0.7567,-0.7565,-0.7561,-0.7554,-0.7567,-0.7573,-0.7575,-0.7546,-0.7546,-0.7546,-0.7546,0,0,-0.7519,-0.7524,-0.7526,-0.753,-0.7534,-0.7539,-0.7547,-0.7553,-0.7557,-0.756,-0.7567,-0.7575,-0.7572,-0.7575,-0.7574,-0.758,-0.7593,-0.7576,-0.7576,-0.758,-0.7609,-0.7612,-0.7615,-0.7591,-0.7592,-0.7592,-0.7609,0,-0.7532,-0.7546,-0.7545,-0.7558,-0.7565,-0.7562,-0.7569,-0.7572,-0.7573,-0.7579,-0.758,-0.7587,-0.7581,-0.7583,-0.7589,-0.759,-0.7599,-0.7589,-0.7598,-0.7599,-0.7598,-0.7618,-0.7621,-0.7637,-0.7611,-0.7611,-0.7612,0,-0.755,-0.7555,-0.7569,-0.7573,-0.7576,-0.7582,-0.7588,-0.7594,-0.7598,-0.7598,-0.7602,-0.7601,-0.7609,-0.7602,-0.7614,-0.7607,-0.7611,-0.7612,-0.7613,-0.7614,-0.7606,-0.762,-0.7642,-0.7645,-0.7615,-0.7615,-0.7614,0,-0.7562,-0.7572,-0.7582,-0.7584,-0.759,-0.7594,-0.7597,-0.7601,-0.7605,-0.761,-0.7613,-0.7619,-0.7622,-0.7627,-0.7627,-0.7622,-0.764,-0.7632,-0.7641,-0.7641,-0.7645,-0.7645,-0.7668,-0.7646,-0.7646,-0.7646,-0.7646,0,-0.7578,-0.7586,-0.7588,-0.7594,-0.7604,-0.7603,-0.7613,-0.7615,-0.7619,-0.7625,-0.7623,-0.7629,-0.7629,-0.7635,-0.7635,-0.7646,-0.7647,-0.7648,-0.7648,-0.7649,-0.7649,-0.7652,-0.7651,-0.7647,-0.7647,-0.7647,-0.7646,0,-0.7593,-0.7594,-0.7604,-0.7609,-0.761,-0.7617,-0.7621,-0.7627,-0.7628,-0.7637,-0.7639,-0.7641,-0.7649,-0.7649,-0.7658,-0.7658,-0.7671,-0.7669,-0.767,-0.767,-0.7679,-0.7678,-0.7705,-0.7709,-0.7684,-0.7684,-0.7684,0,-0.7603,-0.761,-0.7615,-0.762,-0.7622,-0.7629,-0.7634,-0.7634,-0.7639,-0.7645,-0.765,-0.7658,-0.7664,-0.7677,-0.7679,-0.7686,-0.7685,-0.7694,-0.7686,-0.7687,-0.7686,-0.7686,-0.7687,-0.7696,-0.7696,-0.7696,-0.7696,0,-0.7621,-0.7622,-0.7628,-0.7635,-0.7641,-0.7646,-0.7651,-0.7655,-0.7656,-0.7661,-0.767,-0.7674,-0.7684,-0.7692,-0.7699,-0.7701,-0.7699,-0.7699,-0.7701,-0.7702,-0.7703,-0.7704,-0.7675,-0.7698,-0.7698,-0.7698,-0.7698,-0.7698,-0.7635,-0.7641,-0.7646,-0.7654,-0.7658,-0.7663,-0.767,-0.7672,-0.7679,-0.7687,-0.7686,-0.7696,-0.7701,-0.771,-0.7713,-0.7721,-0.7718,-0.7721,-0.7722,-0.7723,-0.7724,-0.7701,-0.7722,-0.7722,-0.7722,-0.7721,-0.7721,0,-0.7654,-0.7658,-0.7665,-0.7672,-0.7678,-0.7676,-0.7682,-0.7687,-0.7696,-0.7701,-0.7707,-0.7717,-0.7725,-0.7728,-0.7736,-0.7741,-0.774,-0.7743,-0.7743,-0.7744,-0.7726,-0.7724,-0.7744,-0.7744,-0.7744,-0.7744,-0.7744,-0.7744,-0.7665,-0.7676,-0.7677,-0.769,-0.7694,-0.7703,-0.7707,-0.7712,-0.7716,-0.7727,-0.7734,-0.7736,-0.7741,-0.7749,-0.7756,-0.7757,-0.776,-0.7764,-0.7764,-0.7747,-0.7745,-0.7743,-0.7741,-0.7764,-0.7764,-0.7782,-0.7782,-0.7782]},{"header":{"parameterUnit":"m.s-1","parameterCategory":1,"la1":30.2991,"la2":30.254,"lo1":-89.0895,"lo2":-89.0444,"dy":0.0017,"dx":0.0017,"nx":28,"ny":28,"refTime":"2024-04-26T09:00:00:Z","depth":0,"parameterNumber":3,"parameterNumberName":"V-component_of_WINDS"},"data":[0,0,0,0,0,0,0,0,0,0,0,0,0,0,0,0,0,0,0,0,0,0,0,0,0,0,0,0,0,0,0,0,0,0,0,0,0,0,0,0,0,0,0,0,0,0,0,0,0,0,0,0,0,0,0,0,0,0,5.1599,5.1599,0,5.1644,5.1645,5.1645,5.1563,5.156,5.1557,5.1555,5.1597,5.1601,5.1605,0,0,0,0,0,0,0,0,0,0,0,0,0,5.1436,5.1439,5.1599,5.1599,5.16,5.1644,5.1645,5.1645,5.1563,5.156,5.1556,5.1553,5.1596,5.16,5.1605,0,0,0,0,0,0,0,0,0,0,0,0,0,5.1496,5.144,5.1599,5.1564,5.1562,5.1644,5.1645,5.1645,5.1564,5.156,5.1556,5.1552,5.1595,5.16,5.1606,5.1722,0,0,5.1623,5.1625,0,0,0,0,0,0,0,0,5.1493,5.1502,5.1569,5.1567,5.1564,5.1594,5.1603,5.1671,5.1565,5.1563,5.1555,5.155,5.1599,5.1604,5.1622,5.1724,5.1726,5.1623,5.1626,5.1629,5.163,0,0,0,0,0,0,0,5.1489,5.15,5.1617,5.157,5.1567,5.1545,5.1549,5.1615,5.1603,5.1563,5.1557,5.1564,5.1597,5.1616,5.1622,5.1727,5.1623,5.1628,5.1631,5.1633,5.1924,5.1928,0,0,0,0,0,0,5.149,5.1497,5.1615,5.1618,5.1518,5.1551,5.1556,5.1588,5.1603,5.1601,5.1567,5.156,5.1609,5.1616,5.1623,5.1758,5.1629,5.1634,5.1637,5.192,5.1925,5.193,0,0,0,0,0,0,5.1486,5.1501,5.1613,5.1556,5.1569,5.1558,5.1596,5.1591,5.1611,5.1606,5.1603,5.1589,5.1606,5.1615,5.1698,5.1759,5.1636,5.1641,5.1915,5.1921,5.1928,5.2031,0,0,0,0,0,0,5.1482,5.15,5.1546,5.1558,5.1572,5.1689,5.1599,5.1595,5.1621,5.1611,5.1626,5.1624,5.1603,5.169,5.1703,5.1764,5.1646,5.1909,5.1918,5.1925,5.2022,5.2041,5.2056,0,0,0,0,0,5.1477,5.1573,5.1549,5.1563,5.1629,5.1693,5.1701,5.1676,5.1626,5.1671,5.1667,5.1624,5.1751,5.1699,5.1713,5.1777,5.1905,5.1915,5.1925,5.2015,5.2037,5.2056,0,0,0,0,0,0,5.1568,5.1574,5.1547,5.1651,5.1672,5.1679,5.1734,5.1701,5.1736,5.1725,5.1692,5.1695,5.1784,5.1789,5.1732,5.1889,5.1819,5.1832,5.1883,5.1904,5.192,5.1916,5.165,0,0,0,0,0,5.1601,5.1653,5.1655,5.1746,5.1759,5.1745,5.1772,5.1751,5.1771,5.1779,5.1782,5.1802,5.1845,5.1875,5.1916,5.2023,5.2024,5.2074,5.2091,5.2105,5.2116,5.217,5.2192,5.1962,5.1962,5.1962,0,0,5.1668,5.1677,5.1713,5.1765,5.1779,5.1832,5.1753,5.1814,5.1852,5.1788,5.1865,5.1868,5.1888,5.1983,5.2025,5.199,5.218,5.2117,5.2129,5.2132,5.2183,5.2205,5.2224,5.1969,5.1968,5.1967,0,0,5.1817,5.1831,5.1907,5.1923,5.1945,5.1935,5.1953,5.1965,5.1965,5.2043,5.1995,5.2039,5.2117,5.2132,5.215,5.2304,5.2264,5.2318,5.2405,5.2459,5.2477,5.2493,5.2545,5.2565,5.2329,5.2329,5.233,0,5.1897,5.1977,5.195,5.2014,5.2037,5.1982,5.2057,5.2073,5.2107,5.2124,5.2084,5.2178,5.2188,5.2285,5.2322,5.2339,5.2357,5.2315,5.2477,5.2493,5.2507,5.2556,5.2576,5.2336,5.2335,5.2334,5.2334,0,5.2073,5.2129,5.2188,5.2222,5.2252,5.2322,5.2303,5.2336,5.2313,5.2306,5.2385,5.2394,5.2435,5.2456,5.2434,5.2549,5.2526,5.2483,5.2411,5.2535,5.2581,5.26,5.2345,5.2342,5.234,5.2339,0,0,5.2281,5.2299,5.2321,5.2335,5.2355,5.2397,5.2462,5.2503,5.253,5.2556,5.2608,5.2674,5.2633,5.2654,5.2632,5.268,5.2797,5.263,5.2629,5.2658,5.2922,5.2953,5.2976,5.2772,5.2776,5.2778,5.292,0,5.2427,5.2541,5.2518,5.2629,5.2679,5.2627,5.2684,5.2701,5.2697,5.2737,5.2731,5.2778,5.2722,5.2733,5.2778,5.2774,5.2849,5.2763,5.2818,5.282,5.2813,5.3,5.3034,5.3167,5.2938,5.2941,5.2943,0,5.2613,5.2645,5.2761,5.2771,5.2791,5.2843,5.2876,5.2917,5.2934,5.2927,5.295,5.2919,5.2982,5.2911,5.2996,5.2938,5.2959,5.296,5.2964,5.2967,5.2888,5.3005,5.3209,5.3228,5.2971,5.2969,5.2967,0,5.275,5.2822,5.29,5.2914,5.2929,5.2966,5.2973,5.2987,5.3012,5.3041,5.3056,5.3092,5.3111,5.3139,5.3118,5.3069,5.3205,5.3133,5.3199,5.32,5.3229,5.3227,5.3436,5.3247,5.3246,5.3246,5.3246,0,5.2914,5.2987,5.2962,5.301,5.3088,5.306,5.3138,5.314,5.3152,5.3198,5.3155,5.3199,5.3169,5.3209,5.3193,5.3264,5.3274,5.3268,5.3263,5.3271,5.3272,5.3283,5.3272,5.3251,5.325,5.3249,5.3248,0,5.308,5.3067,5.3148,5.3154,5.3158,5.3215,5.322,5.3263,5.3256,5.3314,5.3326,5.3313,5.3358,5.334,5.3388,5.3377,5.3468,5.3451,5.3462,5.3457,5.3523,5.3516,5.3745,5.3772,5.3567,5.3569,5.3571,0,5.3185,5.3239,5.3252,5.3279,5.329,5.3336,5.3361,5.3335,5.3362,5.3385,5.3426,5.3467,5.3499,5.3573,5.3568,5.3603,5.3586,5.3664,5.3591,5.3597,5.3584,5.358,5.3584,5.3678,5.368,5.3682,5.3684,0,5.3372,5.3362,5.34,5.3436,5.3467,5.3494,5.3516,5.3541,5.3516,5.3549,5.3595,5.362,5.3668,5.3709,5.3741,5.3746,5.371,5.3707,5.3723,5.3731,5.3734,5.3731,5.3499,5.3701,5.3699,5.3698,5.3697,5.3696,5.3509,5.3553,5.3569,5.3612,5.3626,5.3648,5.3689,5.3686,5.3724,5.3762,5.3744,5.3797,5.3811,5.3849,5.386,5.3899,5.3869,5.3894,5.39,5.3906,5.3913,5.373,5.3905,5.3905,5.3904,5.3904,5.3904,0,5.3691,5.3698,5.3738,5.3771,5.3805,5.3769,5.3792,5.3822,5.3869,5.3886,5.3918,5.3969,5.4008,5.4006,5.4041,5.4073,5.4058,5.4083,5.408,5.4081,5.394,5.3921,5.4095,5.4095,5.4095,5.4095,5.4095,5.4095,5.379,5.3863,5.3855,5.3934,5.394,5.3992,5.4007,5.4026,5.4039,5.4099,5.4131,5.413,5.4138,5.4174,5.4207,5.4205,5.4219,5.4251,5.4243,5.411,5.4091,5.4073,5.4055,5.4255,5.4255,5.438,5.4382,5.4382]}]]